Hourly Data Report for May 25, 2012

All times are specified in Local Standard Time (LST). Add 1 hour to adjust for Daylight Saving Time where and when it is observed.

LONDON A
ONTARIO

43°01'59.000" N
81°09'04.000" W
278.00 m
6144473
71623
YXU

Download Data

Hourly Data (May 2012)
Hourly Data Report for May 25, 2012
Temp Definition
°C
Dew Point Temp Definition
°C
Rel Hum Definition
%
Wind Dir Definition
10's deg

Wind Spd Definition
km/h
Visibility Definition
km
Stn Press Definition
kPa
Hmdx Definition


Wind Chill Definition


Weather Definition


TIME
00:00 Legend Double Dagger 22.1 16.0 68 17 21 10.0 98.00 27   LegendNANA
01:00 Legend Double Dagger 21.1 16.2 73 17 21 10.0 98.00 26   Clear
02:00 Legend Double Dagger 20.6 16.3 76 17 18 10.0 98.05 25   LegendNANA
03:00 Legend Double Dagger 20.0 16.5 80 18 18 10.0 98.05 25   LegendNANA
04:00 Legend Double Dagger 19.1 16.4 84 17 16 10.0 98.07     Mainly Clear
05:00 Legend Double Dagger 19.3 16.4 83 17 16 10.0 98.07     LegendNANA
06:00 Legend Double Dagger 19.6 16.5 82 17 23 10.0 98.07     LegendNANA
07:00 Legend Double Dagger 21.1 17.0 77 18 23 10.0 98.05 26   Mostly Cloudy
08:00 Legend Double Dagger 22.5 16.9 70 20 26 10.0 98.04 28   LegendNANA
09:00 Legend Double Dagger 23.6 16.5 64 21 31 10.0 98.03 29   LegendNANA
10:00 Legend Double Dagger 23.0 16.7 67 21 25 10.0 98.08 28   Rain Showers
11:00 Legend Double Dagger 24.7 18.0 66 19 15 10.0 98.12 31   LegendNANA
12:00 Legend Double Dagger 27.5 18.9 59 20 17 10.0 98.13 34   LegendNANA
13:00 Legend Double Dagger 29.6 18.6 51 25 22 10.0 98.14 36   Mostly Cloudy
14:00 Legend Double Dagger 29.1 18.1 51 28 21 10.0 98.13 35   LegendNANA
15:00 Legend Double Dagger 30.2 18.9 50 28 21 10.0 98.13 37   LegendNANA
16:00 Legend Double Dagger 28.8 17.2 49 31 17 10.0 98.20 34   Mainly Clear
17:00 Legend Double Dagger 28.1 13.5 40 29 18 10.0 98.24 31   LegendNANA
18:00 Legend Double Dagger 26.6 13.6 44 33 18 10.0 98.27 30   LegendNANA
19:00 Legend Double Dagger 24.8 13.2 48 33 18 10.0 98.37 28   Mainly Clear
20:00 Legend Double Dagger 21.9 12.3 54 36 7 10.0 98.41     LegendNANA
21:00 Legend Double Dagger 17.4 12.2 71 35 8 10.0 98.49     LegendNANA
22:00 Legend Double Dagger 16.9 12.9 77   0 10.0 98.56     Clear
23:00 Legend Double Dagger 14.4 11.8 84   0 10.0 98.60     LegendNANA

Notes on Data Quality.

Legend

  • E = Estimated
  • M = Missing
  • NA = Not Available
  • ‡ = Partner data that is not subject to review by the National Climate Archives
Date modified: